Location: L�Ave Maria
(50.7161°N, 1.5911°E)
Time: 13:15:58
(UTC+00:00)

Cosmos 2154 Rocket - Pass Details

Date: 10 July 2020
Orbit: 967 x 995 km, 82.9° (Epoch: 07 August)

Event Time Altitude Azimuth Distance (km) Brightness Sun altitude
Exits shadow 21:51:39 11° 178° (S) 2,605 5.7 -12.0°
Maximum altitude 21:57:33 73° 96° (E) 1,016 4.0 -12.4°
Drops below altitude 10° 22:03:47 10° 13° (NNE) 2,733 7.1 -12.9°
Sets 22:06:18 0° 12° (NNE) 3,688 7.9 -13.1°
